Retour au catalogue

CZ-4 DEB

ActifPO
NORAD 26436·DEBRIS·🇨🇳 China

Lancé Oct 14, 1999 depuis Taiyuan Satellite Launch Center

Loading…

Prochains Passages (prochaines 24 heures)

TLE

FraisSource: Space-Track

Époque: Sep 14, 2026, 10:01 UTC

1 26436U 99057KH  26257.41796480 -.00000012  00000-0  23924-4 0  9990
2 26436  99.5117 320.2106 0704293  33.3954 330.9592 12.98273934614427

Suivez CZ-4 DEB en temps réel avec AllMySat

Download on the App Store